Regional Weather Roundup
Issued by NWS

Home | Current Version | Previous Version | Graphics & Text | Print | Product List | Glossary On
Versions: 1 2 3 4 5 6 7 8 9 10 11 12 13 14 15 16 17 18 19 20 21 22 23 24 25 26 27 28 29 30 31 32 33 34 35 36 37 38 39 40 41 42 43 44 45 46 47 48 49 50
000
ASUS43 KIND 211059
RWRIN

WEATHER ROUNDUP FOR INDIANA
NATIONAL WEATHER SERVICE INDIANAPOLIS IN
700 AM EDT SUN SEP 21 2014

NOTE: "FAIR" INDICATES FEW OR NO CLOUDS BELOW 12,000 FEET WITH NO
SIGNIFICANT WEATHER AND/OR OBSTRUCTIONS TO VISIBILITY.

* - STATION DOES NOT REPORT WEATHER SUCH AS PRECIPITATION OR FOG.

+ - STATION NOT QUALITY CONTROLLED BY THE NATIONAL WEATHER SERVICE.
    USE DATA WITH CAUTION...ESPECIALLY DEWPOINT AND RELATIVE
    HUMIDITY OBSERVATIONS.

INZ001>003-010>013-019-020-211200-
NORTHWEST INDIANA

CITY           SKY/WX    TMP DP  RH WIND       PRES   REMARKS
GARY /AIRPORT/ PTCLDY    61  55  82 W14       29.80R
VALPARAISO     CLEAR     59  54  83 W13       29.80R

$$

LMZ046-743>745-211200-
SOUTHERN LAKE MICHIGAN

STATION/POSITION TIME  TEMP WIND        PRES
                       AIR  DIR/SP/G
                 (UTC) (F)  (DEG/KT/KT) (MB)
MICHIGAN CITY    1000   64  250/ 26/ 30   N/A

$$

INZ004-005-014>016-021>024-211200-
NORTH CENTRAL INDIANA

CITY           SKY/WX    TMP DP  RH WIND       PRES   REMARKS
GOSHEN         PTCLDY   N/A N/A N/A W15G22    29.74R
PERU/GRISSOM   MOCLDY    66  66 100 NW16      29.79R
SOUTH BEND     PTCLDY    62  55  77 W16G24    29.76R

$$

INZ006>009-017-018-025>027-211200-
NORTHEAST INDIANA

CITY           SKY/WX    TMP DP  RH WIND       PRES   REMARKS
ANGOLA *+      MOCLDY    64  55  72 W9        29.71R
FORT WAYNE     MOCLDY    67  63  87 W15       29.75R

$$

INZ028-029-035-036-043>045-051>053-211200-
WEST CENTRAL INDIANA

CITY           SKY/WX    TMP DP  RH WIND       PRES   REMARKS
GREENCASTLE +  MOCLDY    68  66  94 W9        29.85R
LAFAYETTE      PTCLDY    61  58  90 W13G23    29.83R
TERRE HAUTE    CLOUDY    69  67  93 W8        29.86R

$$

INZ030>032-037>040-046>048-054>057-064-065-211200-
CENTRAL INDIANA

CITY           SKY/WX    TMP DP  RH WIND       PRES   REMARKS
INDIANAPOLIS   MOCLDY    69  66  90 W15       29.82R
-EAGLE CREEK   PTCLDY    69  65  86 W15       29.82R
KOKOMO *+      MOCLDY    66  63  88 NW18G25   29.79R
MT COMFORT *+  CLOUDY    70  70 100 W14       29.82R
SHELBYVILLE    PTCLDY    71  67  87 SW9       29.81F

$$

INZ033-034-041-042-049-050-058-059-211200-
EAST CENTRAL INDIANA

CITY           SKY/WX    TMP DP  RH WIND       PRES   REMARKS
MUNCIE         CLOUDY    69  65  86 W16       29.78R

$$

INZ060-061-067>069-081>083-085>088-211200-
SOUTHWEST INDIANA

CITY           SKY/WX    TMP DP  RH WIND       PRES   REMARKS
EVANSVILLE     CLOUDY    69  67  93 SW5       29.91F

$$

INZ062-063-066-070>080-084-089>092-211200-
SOUTH CENTRAL AND SOUTHEAST INDIANA

CITY           SKY/WX    TMP DP  RH WIND       PRES   REMARKS
BLOOMINGTON    CLOUDY    69  67  93 NW7       29.87R

$$



USA.gov is the U.S. government's official web portal to all federal, state and local government web resources and services.